51,2013-07-17 19:27:15,1374089235,55.23692,-10.11362,3,2,2013-07-17 19:26:00,1374089160,16.67,1,15.8,0,4095,55.202,-10.0748,40,48
52,2013-07-17 20:06:10,1374091570,55.18217,-10.16442,2,2,2013-07-17 20:00:00,1374091200,16.68,1,15.8,30,4095,55.202,-10.0748,40,48
53,2013-07-17 21:06:09,1374095169,55.18737,-10.10259,2,2,2013-07-17 21:00:00,1374094800,15.02,6,15.8,30,0,55.1916,-10.0748,66,44
54,2013-07-17 22:06:09,1374098769,55.20787,-10.10259,3,1,2013-07-17 22:00:00,1374098400,14.98,5,15.8,30,60,55.1916,-10.0748,66,44
55,2013-07-17 23:06:09,1374102369,55.16348,-10.02979,3,1,2013-07-17 23:00:00,1374102000,14.94,5,15.8,30,120,55.1916,-10.0748,66,44
56,2013-07-18 00:06:12,1374105972,55.15833,-10.09158,2,1,2013-07-18 00:00:00,1374105600,14.92,6,15.8,30,0,55.2042,-10.0496,94,20
57,2013-07-18 01:06:09,1374109569,55.18737,-10.10259,3,2,2013-07-18 01:00:00,1374109200,14.89,6,15.8,30,60,55.2042,-10.0496,94,20
58,2013-07-18 02:06:09,1374113169,55.21816,-9.97886,2,1,2013-07-18 02:00:00,1374112800,14.85,5,15.8,30,120,55.2042,-10.0496,94,20
59,2013-07-18 03:06:14,1374116774,55.20787,-10.10259,2,3,2013-07-18 03:00:00,1374116400,14.87,7,15.8,30,0,55.2118,-10.038,94,44
60,2013-07-18 04:06:20,1374120380,55.20787,-10.10259,2,0,2013-07-18 04:00:00,1374120000,14.93,6,15.8,30,60,55.2118,-10.038,94,44
61,2013-07-18 05:06:09,1374123969,55.21816,-9.97886,3,1,2013-07-18 05:00:00,1374123600,14.96,7,15.8,30,120,55.2118,-10.038,94,44
62,2013-07-18 06:06:12,1374127572,55.21816,-9.97886,2,1,2013-07-18 06:00:00,1374127200,14.95,5,15.8,30,0,55.2192,-10.0352,50,44
63,2013-07-18 07:06:11,1374131171,55.24209,-10.0517,2,1,2013-07-18 07:00:00,1374130800,14.95,5,15.8,30,60,55.2192,-10.0352,50,44
64,2013-07-18 08:06:10,1374134770,55.24209,-10.0517,4,1,2013-07-18 08:00:00,1374134400,14.97,5,15.8,30,120,55.2192,-10.0352,50,44
65,2013-07-18 09:06:12,1374138372,55.21303,-10.04073,3,31,2013-07-18 09:00:00,1374138000,15,5,15.8,30,0,55.2302,-10.0322,62,44
66,2013-07-18 10:06:10,1374141970,55.20159,-12.80148,192,2,2013-07-18 10:00:00,1374141600,15.02,5,15.8,30,60,55.2302,-10.0322,62,44
67,2013-07-18 11:06:18,1374145578,55.21816,-9.97886,2,2,2013-07-18 11:00:00,1374145200,15.04,5,15.8,30,120,55.2302,-10.0322,62,44
68,2013-07-18 12:06:12,1374149172,55.24153,-10.75488,96,4,2013-07-18 12:00:00,1374148800,15.06,5,15.8,30,0,55.2426,-10.0074,50,44
69,2013-07-18 13:06:12,1374152772,55.21816,-9.97886,4,2,2013-07-18 13:00:00,1374152400,15.1,5,15.8,30,60,55.2426,-10.0074,50,44
70,2013-07-18 14:06:11,1374156371,55.26079,-10.18663,67,11,2013-07-18 14:00:00,1374156000,15.15,5,15.6,30,120,55.2426,-10.0074,50,44
71,2013-07-18 15:06:11,1374159971,55.24209,-10.0517,2,3,2013-07-18 15:00:00,1374159600,15.27,6,15.6,30,0,55.2482,-9.98939999999999,32,44
72,2013-07-18 16:06:14,1374163574,55.29679,-10.00068,80,5,2013-07-18 16:00:00,1374163200,15.34,4,15.6,30,60,55.2482,-9.98939999999999,32,44
73,2013-07-18 17:06:14,1374167174,55.21816,-9.97886,6,1,2013-07-18 17:00:00,1374166800,15.27,4,15.6,30,120,55.2482,-9.98939999999999,32,44
74,2013-07-18 18:06:11,1374170771,55.14656,-6.47882,232,2,2013-07-18 18:00:00,1374170400,15.34,5,15.6,30,0,55.253,-9.99279999999999,56,48
75,2013-07-18 19:06:13,1374174373,55.29679,-10.00068,5,6,2013-07-18 19:00:00,1374174000,15.35,6,15.6,30,60,55.253,-9.99279999999999,56,48
76,2013-07-18 20:06:15,1374177975,55.29679,-10.00068,12,4,2013-07-18 20:00:00,1374177600,15.37,6,15.6,30,120,55.253,-9.99279999999999,56,48
77,2013-07-18 21:06:13,1374181573,55.29164,-10.06269,4,5,2013-07-18 21:00:00,1374181200,15.29,5,15.6,30,0,55.2668,-9.99619999999999,18,40
78,2013-07-18 22:06:13,1374185173,55.24723,-9.98976,6,4,2013-07-18 22:00:00,1374184800,15.34,5,15.6,30,60,55.2668,-9.99619999999999,18,40
79,2013-07-18 23:06:10,1374188770,55.3019,-9.93865,3,9,2013-07-18 23:00:00,1374188400,15.32,5,15.6,30,120,55.2668,-9.99619999999999,18,40
80,2013-07-19 00:06:12,1374192372,55.27281,-9.92779,1,1,2013-07-19 00:00:00,1374192000,15.28,6,15.6,30,0,55.2812,-9.97479999999999,50,48
81,2013-07-19 01:06:14,1374195974,55.51596,-5.90614,265,3,2013-07-19 01:00:00,1374195600,15.28,5,15.6,30,60,55.2812,-9.97479999999999,50,48
82,2013-07-19 02:06:14,1374199574,55.29679,-10.00068,2,3,2013-07-19 02:00:00,1374199200,15.28,4,15.6,30,120,55.2812,-9.97479999999999,50,48
83,2013-07-19 03:06:13,1374203173,55.27281,-9.92779,10,1,2013-07-19 03:00:00,1374202800,15.23,4,15.6,30,0,55.2894,-9.95480000000001,62,48
84,2013-07-19 04:06:10,1374206770,55.3019,-9.93865,3,10,2013-07-19 04:00:00,1374206400,15.23,5,15.6,30,60,55.2894,-9.95480000000001,62,48
85,2013-07-19 05:06:11,1374210371,55.29679,-10.00068,4,3,2013-07-19 05:00:00,1374210000,15.19,5,15.6,30,120,55.2894,-9.95480000000001,62,48
86,2013-07-19 06:06:11,1374213971,55.29679,-10.00068,4,0,2013-07-19 06:00:00,1374213600,15.14,7,15.6,30,0,55.2926,-9.95739999999998,32,48
87,2013-07-19 07:06:11,1374217571,55.2677,-9.98976,2,0,2013-07-19 07:00:00,1374217200,15.16,6,15.6,30,60,55.2926,-9.95739999999998,32,48
88,2013-07-19 08:06:19,1374221179,55.34632,-10.01163,12,0,2013-07-19 08:00:00,1374220800,15.18,6,15.6,30,120,55.2926,-9.95739999999998,32,48
89,2013-07-19 09:06:11,1374224771,55.3019,-9.93865,2,7,2013-07-19 09:00:00,1374224400,15.19,6,15.6,30,0,55.3012,-9.9692,62,44
90,2013-07-19 10:06:14,1374228374,55.20537,-14.95168,327,0,2013-07-19 10:00:00,1374228000,15.24,6,15.6,30,60,55.3012,-9.9692,62,44
91,2013-07-19 11:06:20,1374231980,55.29679,-10.00068,5,3,2013-07-19 11:00:00,1374231600,15.31,6,15.6,30,120,55.3012,-9.9692,62,44
92,2013-07-19 12:06:08,1374235568,55.46946,-12.76219,191,2,2013-07-19 12:00:00,1374235200,15.31,5,15.6,30,0,55.3158,-9.96459999999999,90,44
93,2013-07-19 13:06:11,1374239171,55.32589,-10.01163,1,2,2013-07-19 13:00:00,1374238800,15.37,5,15.6,30,60,55.3158,-9.96459999999999,90,44
94,2013-07-19 14:06:21,1374242781,55.3019,-9.93865,3,2,2013-07-19 14:00:00,1374242400,15.48,6,15.6,30,120,55.3158,-9.96459999999999,90,44
95,2013-07-19 15:06:14,1374246374,55.3019,-9.93865,2,6,2013-07-19 15:00:00,1374246000,15.52,5,15.6,30,0,55.3276,-9.9468,88,40
96,2013-07-19 16:06:09,1374249969,55.27333,-9.16235,81,2,2013-07-19 16:00:00,1374249600,15.55,6,15.6,30,60,55.3276,-9.9468,88,40
97,2013-07-19 17:06:09,1374253569,55.29679,-10.00068,2,2,2013-07-19 17:00:00,1374253200,15.58,6,15.6,30,120,55.3276,-9.9468,88,40
98,2013-07-19 18:06:21,1374257181,55.32107,-8.92347,95,1,2013-07-19 18:00:00,1374256800,15.6,6,15.6,30,0,55.3364,-9.94559999999998,110,44
99,2013-07-19 19:06:14,1374260774,55.35145,-9.94954,3,2,2013-07-19 19:00:00,1374260400,15.58,5,15.6,30,60,55.3364,-9.94559999999998,110,44
100,2013-07-19 20:06:09,1374264369,55.3019,-9.93865,13,2,2013-07-19 20:00:00,1374264000,15.56,6,15.6,30,120,55.3364,-9.94559999999998,110,44
101,2013-07-19 21:06:17,1374267977,55.35654,-9.88742,2,2,2013-07-19 21:00:00,1374267600,15.53,5,15.6,30,0,55.344,-9.9538,156,44
102,2013-07-19 22:06:11,1374271571,55.3019,-9.93865,4,1,2013-07-19 22:00:00,1374271200,15.57,6,15.6,30,60,55.344,-9.9538,156,44
103,2013-07-19 23:06:13,1374275173,55.34632,-10.01163,10,3,2013-07-19 23:00:00,1374274800,15.7,5,15.6,30,120,55.344,-9.9538,156,44
104,2013-07-20 00:06:11,1374278771,55.35145,-9.94954,2,1,2013-07-20 00:00:00,1374278400,15.7,5,15.6,30,0,55.3598,-9.9538,122,44
105,2013-07-20 01:06:12,1374282372,55.50095,-7.61975,164,2,2013-07-20 01:00:00,1374282000,15.63,5,15.6,30,60,55.3598,-9.9538,122,44
106,2013-07-20 02:06:28,1374285988,55.35145,-9.94954,2,1,2013-07-20 02:00:00,1374285600,15.6,6,15.6,30,120,55.3598,-9.9538,122,44
107,2013-07-20 03:06:13,1374289573,55.40098,-9.96044,8,4,2013-07-20 03:00:00,1374289200,15.55,7,15.6,30,0,55.3784,-9.92439999999999,94,44
108,2013-07-20 04:06:12,1374293172,55.35654,-9.88742,2,4,2013-07-20 04:00:00,1374292800,15.49,7,15.6,30,60,55.3784,-9.92439999999999,94,44
109,2013-07-20 05:06:11,1374296771,55.35145,-9.94954,3,8,2013-07-20 05:00:00,1374296400,15.47,5,15.6,30,120,55.3784,-9.92439999999999,94,44
110,2013-07-20 06:06:15,1374300375,55.35145,-9.94954,2,2,2013-07-20 06:00:00,1374300000,15.47,5,15.6,30,0,55.3848,-9.90259999999998,96,44
111,2013-07-20 07:06:14,1374303974,55.3616,-9.82528,15,1,2013-07-20 07:00:00,1374303600,15.49,7,15.6,30,60,55.3848,-9.90259999999998,96,44
112,2013-07-20 08:06:10,1374307570,55.38567,-9.89826,2,1,2013-07-20 08:00:00,1374307200,15.54,5,15.6,30,120,55.3848,-9.90259999999998,96,44
113,2013-07-20 09:06:11,1374311171,55.40098,-9.96044,2,1,2013-07-20 09:00:00,1374310800,15.63,5,15.6,30,0,55.385,-9.9068,56,44
114,2013-07-20 10:06:12,1374314772,55.35145,-9.94954,8,1,2013-07-20 10:00:00,1374314400,15.73,5,15.6,30,60,55.385,-9.9068,56,44
115,2013-07-20 11:06:17,1374318377,55.38057,-9.96044,1,2,2013-07-20 11:00:00,1374318000,16.04,4,15.6,30,120,55.385,-9.9068,56,44
116,2013-07-20 12:06:14,1374321974,55.66821,-15.33328,351,3,2013-07-20 12:00:00,1374321600,16.33,4,15.6,30,0,55.3962,-9.9162,62,44
117,2013-07-20 13:06:15,1374325575,55.43522,-9.90912,5,2,2013-07-20 13:00:00,1374325200,16.55,6,15.6,30,60,55.3962,-9.9162,62,44
118,2013-07-20 14:06:11,1374329171,55.59417,-14.35934,10,7,2013-07-20 14:00:00,1374328800,16.48,5,15.6,30,120,55.3962,-9.9162,62,44
119,2013-07-20 15:06:13,1374332773,55.44029,-9.84685,3,1,2013-07-20 15:00:00,1374332400,16.54,5,15.6,30,0,55.417,-9.89959999999999,62,44
120,2013-07-20 16:06:10,1374336370,55.51005,-11.34719,113,6,2013-07-20 16:00:00,1374336000,16.64,4,15.6,30,60,55.417,-9.89959999999999,62,44
121,2013-07-20 17:06:18,1374339978,55.43522,-9.90912,2,1,2013-07-20 17:00:00,1374339600,16.7,5,15.6,30,120,55.417,-9.89959999999999,62,44
122,2013-07-20 18:06:12,1374343572,55.3568,-9.12017,80,2,2013-07-20 18:00:00,1374343200,16.9,5,15.6,30,0,55.4272,-9.8766,50,48
123,2013-07-20 19:06:16,1374347176,55.41114,-9.83605,2,1,2013-07-20 19:00:00,1374346800,16.87,5,15.6,30,60,55.4272,-9.8766,50,48
124,2013-07-20 20:06:11,1374350771,55.37718,-8.42466,113,7,2013-07-20 20:00:00,1374350400,16.86,5,15.6,30,120,55.4272,-9.8766,50,48
125,2013-07-20 21:06:20,1374354380,55.43522,-9.90912,2,2,2013-07-20 21:00:00,1374354000,16.8,6,15.6,30,0,55.43,-9.8732,12,40
126,2013-07-20 22:06:13,1374357973,55.43522,-9.90912,3,6,2013-07-20 22:00:00,1374357600,16.81,5,15.6,30,60,55.43,-9.8732,12,40
127,2013-07-20 23:06:12,1374361572,55.41114,-9.83605,2,1,2013-07-20 23:00:00,1374361200,16.82,5,15.6,30,120,55.43,-9.8732,12,40
128,2013-07-21 00:06:14,1374365174,55.40607,-9.89826,2,5,2013-07-21 00:00:00,1374364800,16.85,5,15.6,30,0,55.4338,-9.87459999999999,50,44
129,2013-07-21 01:06:13,1374368773,55.46571,-9.78456,25,2,2013-07-21 01:00:00,1374368400,16.83,4,15.6,30,60,55.4338,-9.87459999999999,50,44
130,2013-07-21 02:06:13,1374372373,55.44029,-9.84685,2,5,2013-07-21 02:00:00,1374372000,16.82,4,15.6,30,120,55.4338,-9.87459999999999,50,44
131,2013-07-21 03:06:11,1374375971,55.56992,-7.31383,172,1,2013-07-21 03:00:00,1374375600,16.81,4,15.6,30,0,55.4474,-9.85939999999999,30,44
132,2013-07-21 04:06:13,1374379573,55.45559,-9.90912,2,5,2013-07-21 04:00:00,1374379200,16.73,4,15.6,30,60,55.4474,-9.85939999999999,30,44
133,2013-07-21 05:06:10,1374383170,55.44534,-9.78456,3,7,2013-07-21 05:00:00,1374382800,16.28,4,15.6,30,120,55.4474,-9.85939999999999,30,44
134,2013-07-21 06:06:12,1374386772,55.46571,-9.78456,2,0,2013-07-21 06:00:00,1374386400,16.17,4,15.6,30,0,55.4528,-9.83499999999998,30,44
135,2013-07-21 07:06:12,1374390372,55.45559,-9.90912,3,5,2013-07-21 07:00:00,1374390000,15.96,5,15.6,30,60,55.4528,-9.83499999999998,30,44
136,2013-07-21 08:06:12,1374393972,55.44029,-9.84685,4,2,2013-07-21 08:00:00,1374393600,16,5,15.6,30,120,55.4528,-9.83499999999998,30,44
137,2013-07-21 09:06:11,1374397571,55.44029,-9.84685,4,1,2013-07-21 09:00:00,1374397200,15.99,5,15.6,30,0,55.4536,-9.82919999999999,60,40
138,2013-07-21 10:06:22,1374401182,55.49488,-9.79531,7,0,2013-07-21 10:00:00,1374400800,16.33,5,15.6,30,60,55.4536,-9.82919999999999,60,40
139,2013-07-21 11:06:21,1374404781,55.44534,-9.78456,2,4,2013-07-21 11:00:00,1374404400,16.64,6,15.6,30,120,55.4536,-9.82919999999999,60,40
140,2013-07-21 12:06:36,1374408396,55.48983,-9.85767,4,2,2013-07-21 12:00:00,1374408000,16.73,5,15.6,30,0,55.4576,-9.834,48,44
141,2013-07-21 13:06:13,1374411973,55.44029,-9.84685,4,2,2013-07-21 13:00:00,1374411600,16.67,5,15.6,34,60,55.4576,-9.834,48,44
142,2013-07-21 14:06:20,1374415580,55.47073,-9.72224,3,2,2013-07-21 14:00:00,1374415200,16.71,5,15.6,30,120,55.4576,-9.834,48,44
143,2013-07-21 15:06:21,1374419181,55.48983,-9.85767,2,1,2013-07-21 15:00:00,1374418800,16.78,5,15.6,30,0,55.4664,-9.82559999999998,108,48
144,2013-07-21 16:06:15,1374422775,55.57583,-11.82004,161,5,2013-07-21 16:00:00,1374422400,16.79,6,15.6,30,60,55.4664,-9.82559999999998,108,48
145,2013-07-21 17:06:15,1374426375,55.44534,-9.78456,7,2,2013-07-21 17:00:00,1374426000,16.78,5,15.6,30,120,55.4664,-9.82559999999998,108,48
146,2013-07-21 18:06:20,1374429980,55.50855,-10.70135,87,3,2013-07-21 18:00:00,1374429600,16.75,5,15.6,30,0,55.4794,-9.8126,120,44
147,2013-07-21 19:06:09,1374433569,55.49488,-9.79531,5,1,2013-07-21 19:00:00,1374433200,16.74,6,15.6,30,60,55.4794,-9.8126,120,44
148,2013-07-21 20:06:09,1374437169,55.55247,-10.7754,111,2,2013-07-21 20:00:00,1374436800,16.73,5,15.6,30,120,55.4794,-9.8126,120,44
149,2013-07-21 21:06:12,1374440772,55.48983,-9.85767,4,2,2013-07-21 21:00:00,1374440400,16.75,6,15.6,30,0,55.4872,-9.81219999999999,118,48
150,2013-07-21 22:06:17,1374444377,55.36826,-7.65718,156,2,2013-07-21 22:00:00,1374444000,16.73,5,15.6,30,60,55.4872,-9.81219999999999,118,48
151,2013-07-21 23:06:12,1374447972,55.49488,-9.79531,3,6,2013-07-21 23:00:00,1374447600,16.59,6,15.6,30,120,55.4872,-9.81219999999999,118,48
152,2013-07-22 00:06:10,1374451570,55.46571,-9.78456,3,7,2013-07-22 00:00:00,1374451200,16.19,6,15.6,30,0,55.4894,-9.80840000000001,86,48
153,2013-07-22 01:06:12,1374455172,55.49323,-10.1803,73,1,2013-07-22 01:00:00,1374454800,16.09,5,15.6,30,60,55.4894,-9.80840000000001,86,48
154,2013-07-22 02:06:11,1374458771,55.48983,-9.85767,2,1,2013-07-22 02:00:00,1374458400,16.39,5,15.6,30,120,55.4894,-9.80840000000001,86,48
155,2013-07-22 03:06:09,1374462369,55.49919,-8.96275,142,1,2013-07-22 03:00:00,1374462000,16.54,4,15.6,30,0,55.491,-9.79839999999999,62,44
156,2013-07-22 04:06:12,1374465972,55.49991,-9.73293,3,1,2013-07-22 04:00:00,1374465600,16.34,4,15.6,30,60,55.491,-9.79839999999999,62,44
157,2013-07-22 05:06:09,1374469569,55.48983,-9.85767,7,1,2013-07-22 05:00:00,1374469200,16.24,5,15.6,30,120,55.491,-9.79839999999999,62,44
158,2013-07-22 06:06:21,1374473181,55.51523,-9.79531,4,1,2013-07-22 06:00:00,1374472800,16.33,5,15.6,30,0,55.4984,-9.7878,32,48
159,2013-07-22 07:06:10,1374476770,55.48983,-9.85767,5,2,2013-07-22 07:00:00,1374476400,16.15,5,15.6,30,60,55.4984,-9.7878,32,48
160,2013-07-22 08:06:10,1374480370,55.54441,-9.80609,7,1,2013-07-22 08:00:00,1374480000,16.24,5,15.6,30,120,55.4984,-9.7878,32,48
161,2013-07-22 09:06:13,1374483973,55.49991,-9.73293,3,3,2013-07-22 09:00:00,1374483600,16.3,5,15.6,30,0,55.5074,-9.7826,64,48
162,2013-07-22 10:06:10,1374487570,55.49991,-9.73293,1,0,2013-07-22 10:00:00,1374487200,16.53,7,15.6,30,60,55.5074,-9.7826,64,48
163,2013-07-22 11:06:19,1374491179,55.49488,-9.79531,7,2,2013-07-22 11:00:00,1374490800,16.69,6,15.6,30,120,55.5074,-9.7826,64,48
164,2013-07-22 12:06:14,1374494774,55.49991,-9.73293,2,4,2013-07-22 12:00:00,1374494400,16.7,4,15.6,30,0,55.5068,-9.78019999999998,32,44
165,2013-07-22 13:06:10,1374498370,55.49488,-9.79531,1,4,2013-07-22 13:00:00,1374498000,16.78,5,15.6,30,60,55.5068,-9.78019999999998,32,44
166,2013-07-22 14:06:10,1374501970,55.49488,-9.79531,3,3,2013-07-22 14:00:00,1374501600,16.98,5,15.6,30,120,55.5068,-9.78019999999998,32,44
167,2013-07-22 15:06:12,1374505572,55.49991,-9.73293,2,3,2013-07-22 15:00:00,1374505200,17.07,4,15.6,30,0,55.5082,-9.7764,38,40
168,2013-07-22 16:06:10,1374509170,55.5049,-9.67052,4,3,2013-07-22 16:00:00,1374508800,17.16,5,15.6,30,60,55.5082,-9.7764,38,40
169,2013-07-22 17:06:15,1374512775,55.49488,-9.79531,2,5,2013-07-22 17:00:00,1374512400,17.14,4,15.6,30,120,55.5082,-9.7764,38,40
170,2013-07-22 18:06:13,1374516373,55.54441,-9.80609,10,2,2013-07-22 18:00:00,1374516000,17.02,5,15.6,30,0,55.5182,-9.76579999999998,62,44
171,2013-07-22 19:06:14,1374519974,55.54441,-9.80609,3,3,2013-07-22 19:00:00,1374519600,16.93,5,15.6,30,60,55.5182,-9.76579999999998,62,44
172,2013-07-22 20:06:16,1374523576,55.52686,-10.37848,152,2,2013-07-22 20:00:00,1374523200,16.77,5,15.6,30,120,55.5182,-9.76579999999998,62,44
173,2013-07-22 21:06:14,1374527174,55.54944,-9.74364,2,3,2013-07-22 21:00:00,1374526800,16.84,8,15.6,30,0,55.5258,-9.76939999999999,62,44
174,2013-07-22 22:06:11,1374530771,55.49488,-9.79531,4,2,2013-07-22 22:00:00,1374530400,16.85,5,15.6,30,60,55.5258,-9.76939999999999,62,44
175,2013-07-22 23:06:12,1374534372,55.49488,-9.79531,6,1,2013-07-22 23:00:00,1374534000,16.87,6,15.6,30,120,55.5258,-9.76939999999999,62,44
176,2013-07-23 00:06:10,1374537970,55.52025,-9.73293,3,2,2013-07-23 00:00:00,1374537600,16.84,5,15.6,30,0,55.5304,-9.7756,62,44
177,2013-07-23 01:06:16,1374541576,55.41311,-11.83011,150,2,2013-07-23 01:00:00,1374541200,16.84,4,15.6,30,60,55.5304,-9.7756,62,44
178,2013-07-23 02:06:11,1374545171,55.54944,-9.74364,3,2,2013-07-23 02:00:00,1374544800,16.83,5,15.6,30,120,55.5304,-9.7756,62,44
179,2013-07-23 03:06:11,1374548771,55.60298,-8.91984,98,4,2013-07-23 03:00:00,1374548400,16.81,4,15.6,30,0,55.5304,-9.76579999999998,10,44
180,2013-07-23 04:06:15,1374552375,55.49991,-9.73293,2,3,2013-07-23 04:00:00,1374552000,16.75,4,15.6,30,60,55.5304,-9.76579999999998,10,44
181,2013-07-23 05:06:11,1374555971,55.5715,-8.65936,93,1,2013-07-23 05:00:00,1374555600,16.62,5,15.6,30,120,55.5304,-9.76579999999998,10,44
182,2013-07-23 06:06:12,1374559572,55.51523,-9.79531,2,6,2013-07-23 06:00:00,1374559200,16.72,4,15.6,30,0,55.5314,-9.74959999999999,32,48
183,2013-07-23 07:06:12,1374563172,55.62576,-7.70796,163,2,2013-07-23 07:00:00,1374562800,16.8,4,15.6,30,60,55.5314,-9.74959999999999,32,48
184,2013-07-23 08:06:14,1374566774,55.54944,-9.74364,1,1,2013-07-23 08:00:00,1374566400,16.84,5,15.6,30,120,55.5314,-9.74959999999999,32,48
185,2013-07-23 09:06:14,1374570374,55.75978,-5.62174,272,9,2013-07-23 09:00:00,1374570000,16.93,5,15.6,30,0,55.5338,-9.75019999999998,32,48
186,2013-07-23 10:06:14,1374573974,55.49991,-9.73293,5,2,2013-07-23 10:00:00,1374573600,16.94,4,15.6,30,60,55.5338,-9.75019999999998,32,48
187,2013-07-23 11:06:11,1374577571,55.54441,-9.80609,2,19,2013-07-23 11:00:00,1374577200,16.91,5,15.6,30,120,55.5338,-9.75019999999998,32,48
188,2013-07-23 12:06:13,1374581173,55.54441,-9.80609,2,3,2013-07-23 12:00:00,1374580800,16.94,5,15.6,30,0,55.5352,-9.76559999999998,30,48
189,2013-07-23 13:06:14,1374584774,55.54944,-9.74364,8,3,2013-07-23 13:00:00,1374584400,17.06,5,15.6,30,60,55.5352,-9.76559999999998,30,48
190,2013-07-23 14:06:12,1374588372,55.52025,-9.73293,3,2,2013-07-23 14:00:00,1374588000,17.19,5,15.6,30,120,55.5352,-9.76559999999998,30,48
191,2013-07-23 15:06:12,1374591972,55.51523,-9.79531,3,5,2013-07-23 15:00:00,1374591600,17.01,6,15.6,30,0,55.5406,-9.76179999999999,60,44
192,2013-07-23 16:06:15,1374595575,55.54944,-9.74364,4,4,2013-07-23 16:00:00,1374595200,17.07,5,15.6,30,60,55.5406,-9.76179999999999,60,44
193,2013-07-23 17:06:14,1374599174,55.54441,-9.80609,2,7,2013-07-23 17:00:00,1374598800,17.06,5,15.6,30,120,55.5406,-9.76179999999999,60,44
194,2013-07-23 18:06:14,1374602774,55.7553,-13.30985,239,6,2013-07-23 18:00:00,1374602400,17.32,4,15.6,30,0,55.5434,-9.74359999999999,30,48
195,2013-07-23 19:06:13,1374606373,55.55444,-9.68117,2,4,2013-07-23 19:00:00,1374606000,17.21,4,15.6,30,60,55.5434,-9.74359999999999,30,48
196,2013-07-23 20:06:12,1374609972,55.69245,-12.57021,194,9,2013-07-23 20:00:00,1374609600,17.12,4,15.6,30,120,55.5434,-9.74359999999999,30,48
197,2013-07-23 21:06:12,1374613572,55.54441,-9.80609,1,8,2013-07-23 21:00:00,1374613200,17.13,5,15.6,30,0,55.545,-9.74160000000001,10,44
198,2013-07-23 22:06:13,1374617173,55.63977,-12.29447,181,4,2013-07-23 22:00:00,1374616800,17,5,15.6,30,60,55.545,-9.74160000000001,10,44
199,2013-07-23 23:06:15,1374620775,55.52025,-9.73293,2,5,2013-07-23 23:00:00,1374620400,16.96,6,15.6,30,120,55.545,-9.74160000000001,10,44
200,2013-07-24 00:06:12,1374624372,55.51523,-9.79531,2,1,2013-07-24 00:00:00,1374624000,16.89,6,15.6,30,0,55.5484,-9.75199999999998,60,44
201,2013-07-24 01:06:12,1374627972,55.54441,-9.80609,3,3,2013-07-24 01:00:00,1374627600,16.84,7,15.6,30,60,55.5484,-9.75199999999998,60,44
202,2013-07-24 02:06:21,1374631581,55.54944,-9.74364,2,1,2013-07-24 02:00:00,1374631200,16.8,5,15.6,30,120,55.5484,-9.75199999999998,60,44
203,2013-07-24 03:06:13,1374635173,55.49243,-11.53336,129,3,2013-07-24 03:00:00,1374634800,16.77,6,15.6,30,0,55.5502,-9.7448,62,44
204,2013-07-24 04:06:12,1374638772,55.54441,-9.80609,2,5,2013-07-24 04:00:00,1374638400,16.72,6,15.6,30,60,55.5502,-9.7448,62,44
205,2013-07-24 05:06:19,1374642379,55.54441,-9.80609,3,1,2013-07-24 05:00:00,1374642000,16.63,5,15.6,30,120,55.5502,-9.7448,62,44
206,2013-07-24 06:06:11,1374645971,55.55444,-9.68117,2,2,2013-07-24 06:00:00,1374645600,16.68,5,15.6,30,0,55.5508,-9.72799999999998,94,44
207,2013-07-24 07:06:10,1374649570,55.61372,-8.34557,110,1,2013-07-24 07:00:00,1374649200,16.5,5,15.6,30,60,55.5508,-9.72799999999998,94,44
208,2013-07-24 08:06:18,1374653178,55.54944,-9.74364,3,0,2013-07-24 08:00:00,1374652800,16.66,6,15.6,30,120,55.5508,-9.72799999999998,94,44
209,2013-07-24 09:06:23,1374656783,55.64525,-7.39305,161,1,2013-07-24 09:00:00,1374656400,16.57,6,15.6,30,0,55.5496,-9.72199999999998,92,48
210,2013-07-24 10:06:13,1374660373,55.55444,-9.68117,5,1,2013-07-24 10:00:00,1374660000,16.56,5,15.6,30,60,55.5496,-9.72199999999998,92,48
211,2013-07-24 11:06:41,1374664001,55.51532,-5.26904,291,2,2013-07-24 11:00:00,1374663600,16.64,6,15.6,30,120,55.5496,-9.72199999999998,92,48
212,2013-07-24 12:06:15,1374667575,55.57865,-9.75438,4,4,2013-07-24 12:00:00,1374667200,16.62,6,15.6,39,0,55.5526,-9.73739999999998,146,44
213,2013-07-24 13:06:13,1374671173,55.54944,-9.74364,6,2,2013-07-24 13:00:00,1374670800,16.64,8,15.6,30,60,55.5526,-9.73739999999998,146,44
214,2013-07-24 14:06:12,1374674772,55.55444,-9.68117,2,4,2013-07-24 14:00:00,1374674400,16.65,6,15.6,30,120,55.5526,-9.73739999999998,146,44
215,2013-07-24 15:06:13,1374678373,55.54944,-9.74364,2,3,2013-07-24 15:00:00,1374678000,16.68,8,15.6,30,0,55.5572,-9.73679999999999,212,44
216,2013-07-24 16:06:13,1374681973,55.54441,-9.80609,13,4,2013-07-24 16:00:00,1374681600,16.64,6,15.6,30,60,55.5572,-9.73679999999999,212,44
217,2013-07-24 17:06:20,1374685580,55.60396,-9.69184,13,3,2013-07-24 17:00:00,1374685200,16.65,6,15.6,30,120,55.5572,-9.73679999999999,212,44
218,2013-07-24 18:06:15,1374689175,55.88479,-14.8283,331,4,2013-07-24 18:00:00,1374688800,16.65,7,15.6,30,0,55.5584,-9.72279999999998,32,28
219,2013-07-24 19:06:11,1374692771,55.54944,-9.74364,2,6,2013-07-24 19:00:00,1374692400,16.62,5,15.6,30,60,55.5584,-9.72279999999998,32,28
220,2013-07-24 20:06:11,1374696371,55.84071,-14.93554,340,4,2013-07-24 20:00:00,1374696000,16.57,5,15.6,30,120,55.5584,-9.72279999999998,32,28
221,2013-07-24 21:06:14,1374699974,55.59896,-9.75438,5,4,2013-07-24 21:00:00,1374699600,16.51,5,15.6,30,0,55.566,-9.71719999999999,32,48
222,2013-07-24 22:06:12,1374703572,55.54944,-9.74364,2,4,2013-07-24 22:00:00,1374703200,16.53,5,15.6,30,60,55.566,-9.71719999999999,32,48
223,2013-07-24 23:06:12,1374707172,55.57475,-9.68117,3,6,2013-07-24 23:00:00,1374706800,16.55,5,15.6,30,120,55.566,-9.71719999999999,32,48
224,2013-07-25 00:06:12,1374710772,55.55444,-9.68117,2,6,2013-07-25 00:00:00,1374710400,16.52,6,15.6,30,0,55.5706,-9.7208,60,44
225,2013-07-25 01:06:15,1374714375,55.4971,-14.405,302,1,2013-07-25 01:00:00,1374714000,16.49,6,15.6,30,60,55.5706,-9.7208,60,44
226,2013-07-25 02:06:11,1374717971,55.54944,-9.74364,2,5,2013-07-25 02:00:00,1374717600,16.5,6,15.6,30,120,55.5706,-9.7208,60,44
227,2013-07-25 03:06:12,1374721572,55.40927,-13.13197,232,5,2013-07-25 03:00:00,1374721200,16.5,7,15.6,30,0,55.5704,-9.71459999999999,10,44